Sample Charts Sidebar
> Live data! Your data is on the web site for you to access within minutes
 
> Detailed data is easily downloaded as data file, which can be opened with Excel
 
> Charts can be customised if necessary
  Chart 1
 

(A maximum of 50 rows are displayed here. Use "Export Data" to see all rows in the date range.)
Date Collected Temp
(Celcius)
WindChill
(Celcius)
WindSpeed
(km/hr)
Gust
(km/hr)
WindDir
(degrees)
2018-07-21 23:00 12.0 11.8 3 11 36
2018-07-21 22:00 11.0 9.0 4 11 357
2018-07-21 21:00 10.0 9.7 2 8 52
2018-07-21 20:00 10.2 10.0 3 6 55
2018-07-21 19:00 11.0 10.5 3 7 41
2018-07-21 18:00 11.6 11.0 3 6 37
2018-07-21 17:00 12.9 11.7 4 11 19
2018-07-21 16:00 14.1 12.2 5 12 355
2018-07-21 15:00 14.4 12.4 5 14 35
2018-07-21 14:00 14.2 12.2 5 14 14
2018-07-21 13:00 14.3 12.7 5 11 20
2018-07-21 12:00 14.0 12.1 5 12 2
2018-07-21 11:00 12.5 11.1 4 8 34
2018-07-21 10:00 8.9 7.7 4 8 52
2018-07-21 09:00 7.6 5.9 4 8 58
2018-07-21 08:00 5.3 3.7 4 8 45
2018-07-21 07:00 5.1 4.8 2 5 55
2018-07-21 06:00 5.3 5.4 2 5 31
2018-07-21 05:00 7.0 7.0 1 3 214
2018-07-21 04:00 8.4 7.9 3 8 188
2018-07-21 03:00 9.1 6.9 5 13 204
2018-07-21 02:00 9.0 4.5 7 16 206
2018-07-21 01:00 8.9 5.4 6 15 201
2018-07-21 00:00 9.2 3.1 10 23 209
2018-07-20 23:00 8.4 6.7 4 10 197
2018-07-20 22:00 7.5 5.8 4 13 187
2018-07-20 21:00 8.6 6.3 5 15 201
2018-07-20 20:00 8.8 1.5 11 28 199
2018-07-20 19:00 9.1 4.2 7 20 205
2018-07-20 18:00 8.6 7.8 2 13 216
2018-07-20 17:00 8.1 3.2 8 20 193
2018-07-20 16:00 8.7 6.3 5 15 264
2018-07-20 15:00 9.6 5.6 7 19 222
2018-07-20 14:00 9.7 2.6 10 25 207
2018-07-20 13:00 10.3 4.0 10 23 206
2018-07-20 12:00 10.6 6.2 7 15 208
2018-07-20 11:00 9.8 8.1 4 11 199
2018-07-20 10:00 9.6 9.2 2 8 200
2018-07-20 09:00 9.5 8.1 4 11 197
2018-07-20 08:00 9.7 9.0 3 10 222
2018-07-20 07:00 11.2 10.3 3 8 234
2018-07-20 06:00 12.8 12.2 3 10 345
2018-07-20 05:00 13.2 11.6 4 13 342
2018-07-20 04:00 13.0 12.3 3 10 356
2018-07-20 03:00 13.4 11.8 5 16 353
2018-07-20 02:00 14.4 11.4 6 20 348
2018-07-20 01:00 14.2 11.6 6 16 12
2018-07-20 00:00 14.2 12.1 5 15 350
2018-07-19 23:00 13.5 11.7 5 13 347
2018-07-19 22:00 13.6 12.9 3 8 1